Location: Unspecified
(47.9110°N, 14.3980°E)
Time: 15:34:34
(UTC+00:00)

Cosmos 407 Rocket - Pass Details

Date: 06 August 2020
Orbit: 744 x 786 km, 74.0° (Epoch: 19 September)

Event Time Altitude Azimuth Distance (km) Brightness Sun altitude
Exits shadow 19:51:58 - 186° (S) 3,308 6.4 -12.2°
Rises 19:52:06 0° 186° (S) 3,261 6.4 -12.2°
Reaches altitude 10° 19:54:31 10° 182° (S) 2,334 5.6 -12.5°
Maximum altitude 19:59:40 53° 106° (ESE) 954 3.7 -13.2°
Drops below altitude 10° 20:04:49 10° 31° (NNE) 2,332 6.2 -13.8°
Sets 20:07:14 0° 27° (NNE) 3,257 7.0 -14.1°
